,,,PA_Meas_PMT16A,,PR_Meas_QMR101_102,,RH_Meas_QMH101,,SR_Meas_QMS101,,TA_Meas_QMH101,,GenWind,,GenWind,
date,time,status,PA,status,PR,status,RH,status,SR,status,TA,status,DirAvg,status,SpdAvg,
2013-03-04, 00:00:04,VALID,1010.48,VALID,0,VALID,104,VALID,0,VALID,24.9998,VALID,53,VALID,0.425391,
2013-03-04, 00:01:04,VALID,1010.46,VALID,0,VALID,104,VALID,0,VALID,24.9998,VALID,52,VALID,0.501953,
2013-03-04, 00:02:04,VALID,1010.45,VALID,0,VALID,104,VALID,0,VALID,24.9803,VALID,53,VALID,0.337109,
2013-03-04, 00:03:04,VALID,1010.45,VALID,0,VALID,104,VALID,0,VALID,24.9608,VALID,53,VALID,0.167578,
2013-03-04, 00:04:04,VALID,1010.45,VALID,0,VALID,104,VALID,0,VALID,24.9608,VALID,52,VALID,0.302734,
2013-03-04, 00:05:04,VALID,1010.46,VALID,0,VALID,104,VALID,0,VALID,24.9608,VALID,54,VALID,0.153516,
2013-03-04, 00:06:04,VALID,1010.46,VALID,0,VALID,104,VALID,0,VALID,24.9608,VALID,53,VALID,0.0402344,
2013-03-04, 00:07:04,VALID,1010.45,VALID,0,VALID,104,VALID,0,VALID,24.9803,VALID,53,VALID,0.316406,
2013-03-04, 00:08:04,VALID,1010.44,VALID,0,VALID,104,VALID,0,VALID,24.9608,VALID,53,VALID,0.351172,
2013-03-04, 00:09:04,VALID,1010.46,VALID,0,VALID,103.962,VALID,0,VALID,24.9608,VALID,54,VALID,0.405859,
2013-03-04, 00:10:04,VALID,1010.47,VALID,0,VALID,103.825,VALID,0,VALID,24.9413,VALID,53,VALID,0.407422,
2013-03-04, 00:11:04,VALID,1010.44,VALID,0,VALID,103.756,VALID,0,VALID,24.9608,VALID,53,VALID,0.392578,
2013-03-04, 00:12:04,VALID,1010.45,VALID,0,VALID,103.779,VALID,0,VALID,24.9413,VALID,53,VALID,0.405859,
2013-03-04, 00:13:04,VALID,1010.45,VALID,0,VALID,103.794,VALID,0,VALID,24.9608,VALID,53,VALID,0.482422,
2013-03-04, 00:14:04,VALID,1010.42,VALID,0,VALID,103.657,VALID,0,VALID,24.9218,VALID,53,VALID,0.576172,
2013-03-04, 00:15:04,VALID,1010.41,VALID,0,VALID,103.497,VALID,0,VALID,24.9218,VALID,64,VALID,0.493359,
2013-03-04, 00:16:04,VALID,1010.37,VALID,0,VALID,103.42,VALID,0,VALID,24.9218,VALID,65,VALID,0.385938,
2013-03-04, 00:17:04,VALID,1010.36,VALID,0,VALID,103.428,VALID,0,VALID,24.9218,VALID,64,VALID,0.0765625,
2013-03-04, 00:18:04,VALID,1010.32,VALID,0,VALID,103.489,VALID,0,VALID,24.9413,VALID,64,VALID,0,
2013-03-04, 00:19:04,VALID,1010.3,VALID,0,VALID,103.603,VALID,0.112112,VALID,24.9589,VALID,65,VALID,0,
2013-03-04, 00:20:04,VALID,1010.26,VALID,0,VALID,103.642,VALID,0.112112,VALID,24.9375,VALID,64,VALID,0,
2013-03-04, 00:21:04,VALID,1010.22,VALID,0,VALID,103.649,VALID,0.112112,VALID,24.9589,VALID,65,VALID,0,
2013-03-04, 00:22:04,VALID,1010.2,VALID,0,VALID,103.603,VALID,0.112112,VALID,24.9784,VALID,65,VALID,0,
2013-03-04, 00:23:04,VALID,1010.21,VALID,0,VALID,103.619,VALID,0.112112,VALID,24.9375,VALID,65,VALID,0,
2013-03-04, 00:24:04,VALID,1010.2,VALID,0,VALID,103.626,VALID,0.112112,VALID,24.9394,VALID,65,VALID,0,
2013-03-04, 00:25:04,VALID,1010.21,VALID,0,VALID,103.703,VALID,0.112112,VALID,24.9199,VALID,65,VALID,0.288281,
2013-03-04, 00:26:04,VALID,1010.21,VALID,0,VALID,103.779,VALID,0.112112,VALID,24.8809,VALID,65,VALID,0.160938,
2013-03-04, 00:27:04,VALID,1010.2,VALID,0,VALID,103.809,VALID,0.112112,VALID,24.8615,VALID,64,VALID,0,
2013-03-04, 00:28:04,VALID,1010.18,VALID,0,VALID,103.779,VALID,0.112112,VALID,24.803,VALID,65,VALID,0,
2013-03-04, 00:29:04,VALID,1010.16,VALID,0,VALID,103.878,VALID,0.112112,VALID,24.7835,VALID,64,VALID,0,
2013-03-04, 00:30:04,VALID,1010.18,VALID,0,VALID,104,VALID,0.224224,VALID,24.7621,VALID,64,VALID,0,
2013-03-04, 00:31:04,VALID,1010.18,VALID,0,VALID,104,VALID,0.112112,VALID,24.764,VALID,64,VALID,0,
2013-03-04, 00:32:04,VALID,1010.17,VALID,0,VALID,104,VALID,0.112112,VALID,24.7445,VALID,64,VALID,0,
2013-03-04, 00:33:04,VALID,1010.13,VALID,0,VALID,104,VALID,0.112112,VALID,24.725,VALID,65,VALID,0,
2013-03-04, 00:34:04,VALID,1010.12,VALID,0,VALID,104,VALID,0,VALID,24.7269,VALID,64,VALID,0,
2013-03-04, 00:35:04,VALID,1010.09,VALID,0,VALID,104,VALID,0,VALID,24.7055,VALID,65,VALID,0,
2013-03-04, 00:36:04,VALID,1010.1,VALID,0,VALID,104,VALID,0,VALID,24.7074,VALID,64,VALID,0,
2013-03-04, 00:37:04,VALID,1010.09,VALID,0,VALID,104,VALID,0,VALID,24.7074,VALID,64,VALID,0,
2013-03-04, 00:38:04,VALID,1010.06,VALID,0,VALID,104,VALID,0,VALID,24.6879,VALID,65,VALID,0,
2013-03-04, 00:39:04,VALID,1010.09,VALID,0,VALID,104,VALID,0,VALID,24.6684,VALID,65,VALID,0,
2013-03-04, 00:40:04,VALID,1010.05,VALID,0,VALID,104,VALID,0,VALID,24.6684,VALID,65,VALID,0,
2013-03-04, 00:41:04,VALID,1010.06,VALID,0,VALID,104,VALID,0,VALID,24.6081,VALID,65,VALID,0,
2013-03-04, 00:42:04,VALID,1010.07,VALID,0,VALID,104,VALID,0,VALID,24.6294,VALID,64,VALID,0,
2013-03-04, 00:43:04,VALID,1010.05,VALID,0,VALID,104,VALID,0,VALID,24.6099,VALID,65,VALID,0,
2013-03-04, 00:44:04,VALID,1010.04,VALID,0,VALID,104,VALID,0,VALID,24.6294,VALID,65,VALID,0.146484,
2013-03-04, 00:45:04,VALID,1010.06,VALID,0,VALID,104,VALID,0,VALID,24.6489,VALID,64,VALID,0.284375,
2013-03-04, 00:46:04,VALID,1010.03,VALID,0,VALID,104,VALID,0,VALID,24.6684,VALID,63,VALID,0.357812,
2013-03-04, 00:47:04,VALID,1010.05,VALID,0,VALID,104,VALID,0,VALID,24.6879,VALID,65,VALID,0.378906,
2013-03-04, 00:48:04,VALID,1010.02,VALID,0,VALID,104,VALID,0.112112,VALID,24.6684,VALID,65,VALID,0.449219,
2013-03-04, 00:49:04,VALID,1010.03,VALID,0,VALID,104,VALID,0,VALID,24.6666,VALID,64,VALID,0.415234,
2013-03-04, 00:50:04,VALID,1010.01,VALID,0,VALID,104,VALID,0,VALID,24.6666,VALID,65,VALID,0.344141,
2013-03-04, 00:51:04,VALID,1010.01,VALID,0,VALID,104,VALID,0,VALID,24.6879,VALID,65,VALID,0.362109,
2013-03-04, 00:52:04,VALID,1010.01,VALID,0,VALID,104,VALID,0,VALID,24.686,VALID,65,VALID,0.255469,
2013-03-04, 00:53:04,VALID,1010,VALID,0,VALID,104,VALID,0,VALID,24.7074,VALID,65,VALID,0.302344,
2013-03-04, 00:54:04,VALID,1009.97,VALID,0,VALID,104,VALID,0,VALID,24.7074,VALID,65,VALID,0.246094,
2013-03-04, 00:55:04,VALID,1009.98,VALID,0,VALID,104,VALID,0,VALID,24.7074,VALID,65,VALID,0.216016,
2013-03-04, 00:56:04,VALID,1009.98,VALID,0,VALID,104,VALID,0,VALID,24.7269,VALID,64,VALID,0.0597656,
2013-03-04, 00:57:04,VALID,1009.98,VALID,0,VALID,104,VALID,0,VALID,24.7074,VALID,65,VALID,0,
2013-03-04, 00:58:04,VALID,1009.96,VALID,0,VALID,104,VALID,0,VALID,24.7074,VALID,64,VALID,0.003125,
2013-03-04, 00:59:04,VALID,1009.96,VALID,0,VALID,104,VALID,0,VALID,24.7074,VALID,64,VALID,0,
2013-03-04, 01:00:04,VALID,1009.94,VALID,0,VALID,104,VALID,0,VALID,24.7269,VALID,65,VALID,0.178516,
2013-03-04, 01:01:04,VALID,1009.92,VALID,0,VALID,104,VALID,0,VALID,24.7269,VALID,64,VALID,0.164063,
2013-03-04, 01:02:04,VALID,1009.89,VALID,0,VALID,104,VALID,0,VALID,24.7269,VALID,64,VALID,0.0730469,
2013-03-04, 01:03:04,VALID,1009.88,VALID,0,VALID,104,VALID,0,VALID,24.7269,VALID,64,VALID,0,
2013-03-04, 01:04:04,VALID,1009.87,VALID,0,VALID,104,VALID,0,VALID,24.6879,VALID,65,VALID,0,
2013-03-04, 01:05:04,VALID,1009.87,VALID,0,VALID,104,VALID,0,VALID,24.7074,VALID,64,VALID,0,
2013-03-04, 01:06:04,VALID,1009.84,VALID,0,VALID,104,VALID,0,VALID,24.6879,VALID,65,VALID,0,
2013-03-04, 01:07:04,VALID,1009.85,VALID,0,VALID,104,VALID,0,VALID,24.6489,VALID,65,VALID,0,
2013-03-04, 01:08:04,VALID,1009.82,VALID,0,VALID,104,VALID,0,VALID,24.6489,VALID,65,VALID,0,
2013-03-04, 01:09:04,VALID,1009.81,VALID,0,VALID,104,VALID,0,VALID,24.6294,VALID,64,VALID,0.0160156,
2013-03-04, 01:10:04,VALID,1009.81,VALID,0,VALID,104,VALID,0,VALID,24.6489,VALID,64,VALID,0.397266,
2013-03-04, 01:11:04,VALID,1009.84,VALID,0,VALID,104,VALID,0,VALID,24.6489,VALID,65,VALID,0.344141,
2013-03-04, 01:12:04,VALID,1009.84,VALID,0,VALID,104,VALID,0,VALID,24.6684,VALID,64,VALID,0.256641,
2013-03-04, 01:13:04,VALID,1009.86,VALID,0,VALID,104,VALID,0,VALID,24.6879,VALID,65,VALID,0.273828,
2013-03-04, 01:14:04,VALID,1009.85,VALID,0,VALID,104,VALID,0,VALID,24.6684,VALID,65,VALID,0.239844,
2013-03-04, 01:15:04,VALID,1009.85,VALID,0,VALID,104,VALID,0,VALID,24.6879,VALID,64,VALID,0.233203,
2013-03-04, 01:16:04,VALID,1009.82,VALID,0,VALID,104,VALID,0,VALID,24.6684,VALID,65,VALID,0.184766,
2013-03-04, 01:17:04,VALID,1009.82,VALID,0,VALID,104,VALID,0,VALID,24.6684,VALID,65,VALID,0.548828,
2013-03-04, 01:18:04,VALID,1009.79,VALID,0,VALID,104,VALID,0,VALID,24.6684,VALID,84,VALID,0.439063,
2013-03-04, 01:19:04,VALID,1009.79,VALID,0,VALID,104,VALID,0,VALID,24.6489,VALID,84,VALID,0.301953,
2013-03-04, 01:20:04,VALID,1009.78,VALID,0,VALID,104,VALID,0,VALID,24.6489,VALID,84,VALID,0.326562,
2013-03-04, 01:21:04,VALID,1009.77,VALID,0,VALID,104,VALID,0,VALID,24.6294,VALID,84,VALID,0.321094,
2013-03-04, 01:22:04,VALID,1009.8,VALID,0,VALID,104,VALID,0,VALID,24.6099,VALID,84,VALID,0.502734,
2013-03-04, 01:23:04,VALID,1009.81,VALID,0,VALID,104,VALID,0,VALID,24.6099,VALID,84,VALID,0.497656,
2013-03-04, 01:24:04,VALID,1009.81,VALID,0,VALID,104,VALID,0,VALID,24.6099,VALID,84,VALID,0.325391,
2013-03-04, 01:25:04,VALID,1009.82,VALID,0,VALID,104,VALID,0,VALID,24.6099,VALID,84,VALID,0.361719,
2013-03-04, 01:26:04,VALID,1009.81,VALID,0,VALID,104,VALID,0,VALID,24.6294,VALID,84,VALID,0.528516,
2013-03-04, 01:27:04,VALID,1009.8,VALID,0,VALID,104,VALID,0,VALID,24.6294,VALID,84,VALID,0.504297,
2013-03-04, 01:28:04,VALID,1009.8,VALID,0,VALID,104,VALID,0,VALID,24.6099,VALID,84,VALID,0.385547,
2013-03-04, 01:29:04,VALID,1009.83,VALID,0,VALID,104,VALID,0,VALID,24.6099,VALID,84,VALID,0.360156,
2013-03-04, 01:30:04,VALID,1009.79,VALID,0,VALID,104,VALID,0,VALID,24.6099,VALID,84,VALID,0.244141,
2013-03-04, 01:31:04,VALID,1009.79,VALID,0,VALID,104,VALID,0,VALID,24.5905,VALID,84,VALID,0.237109,
2013-03-04, 01:32:04,VALID,1009.75,VALID,0,VALID,104,VALID,0,VALID,24.6099,VALID,84,VALID,0.180078,
2013-03-04, 01:33:04,VALID,1009.73,VALID,0,VALID,104,VALID,0,VALID,24.6099,VALID,84,VALID,0,
2013-03-04, 01:34:04,VALID,1009.74,VALID,0,VALID,104,VALID,0,VALID,24.5691,VALID,84,VALID,0.11875,
2013-03-04, 01:35:04,VALID,1009.71,VALID,0,VALID,104,VALID,0,VALID,24.571,VALID,84,VALID,0.00195313,
2013-03-04, 01:36:04,VALID,1009.71,VALID,0,VALID,104,VALID,0,VALID,24.5905,VALID,84,VALID,0.338281,
2013-03-04, 01:37:04,VALID,1009.69,VALID,0,VALID,104,VALID,0,VALID,24.571,VALID,84,VALID,0.327734,
2013-03-04, 01:38:04,VALID,1009.67,VALID,0,VALID,104,VALID,0,VALID,24.571,VALID,84,VALID,0.373437,
2013-03-04, 01:39:04,VALID,1009.69,VALID,0,VALID,104,VALID,0,VALID,24.6118,VALID,84,VALID,0.534766,
2013-03-04, 01:40:04,VALID,1009.65,VALID,0,VALID,104,VALID,0.112112,VALID,24.5905,VALID,84,VALID,0.281641,
2013-03-04, 01:41:04,VALID,1009.65,VALID,0,VALID,103.588,VALID,0,VALID,24.5905,VALID,124,VALID,0.939453,
2013-03-04, 01:42:04,VALID,1009.67,VALID,0,VALID,103.283,VALID,0,VALID,24.5905,VALID,121,VALID,0.479297,
2013-03-04, 01:43:04,VALID,1009.68,VALID,0,VALID,103.085,VALID,0,VALID,24.5905,VALID,121,VALID,0.458984,
2013-03-04, 01:44:04,VALID,1009.64,VALID,0,VALID,102.993,VALID,0,VALID,24.571,VALID,121,VALID,0.00820312,
2013-03-04, 01:45:04,VALID,1009.66,VALID,0,VALID,103.093,VALID,0,VALID,24.5496,VALID,121,VALID,0.547266,
2013-03-04, 01:46:04,VALID,1009.62,VALID,0,VALID,102.772,VALID,0,VALID,24.5515,VALID,123,VALID,0.516406,
2013-03-04, 01:47:04,VALID,1009.63,VALID,0,VALID,102.795,VALID,0,VALID,24.532,VALID,123,VALID,0.24375,
2013-03-04, 01:48:04,VALID,1009.63,VALID,0,VALID,102.788,VALID,0,VALID,24.532,VALID,123,VALID,0.249219,
2013-03-04, 01:49:04,VALID,1009.62,VALID,0,VALID,102.841,VALID,0,VALID,24.5125,VALID,123,VALID,0.43125,
2013-03-04, 01:50:04,VALID,1009.59,VALID,0,VALID,102.894,VALID,0.112112,VALID,24.493,VALID,123,VALID,0.281641,
2013-03-04, 01:51:04,VALID,1009.59,VALID,0,VALID,103.039,VALID,0,VALID,24.5125,VALID,123,VALID,0,
2013-03-04, 01:52:04,VALID,1009.61,VALID,0,VALID,102.986,VALID,0,VALID,24.4717,VALID,123,VALID,0.00078125,
2013-03-04, 01:53:04,VALID,1009.61,VALID,0,VALID,102.932,VALID,0.112112,VALID,24.4522,VALID,123,VALID,0.420703,
2013-03-04, 01:54:04,VALID,1009.61,VALID,0,VALID,102.818,VALID,0,VALID,24.454,VALID,124,VALID,0.505078,
2013-03-04, 01:55:04,VALID,1009.62,VALID,0,VALID,102.849,VALID,0,VALID,24.454,VALID,123,VALID,0.483984,
2013-03-04, 01:56:04,VALID,1009.63,VALID,0,VALID,102.887,VALID,0,VALID,24.454,VALID,123,VALID,0.258984,
2013-03-04, 01:57:04,VALID,1009.61,VALID,0,VALID,102.887,VALID,0,VALID,24.4345,VALID,123,VALID,0.120703,
2013-03-04, 01:58:04,VALID,1009.63,VALID,0,VALID,102.971,VALID,0,VALID,24.4345,VALID,123,VALID,0.265625,
2013-03-04, 01:59:04,VALID,1009.62,VALID,0,VALID,103.047,VALID,0,VALID,24.4345,VALID,123,VALID,0.279687,
2013-03-04, 02:00:04,VALID,1009.63,VALID,0,VALID,103.184,VALID,0,VALID,24.415,VALID,123,VALID,0.133203,
2013-03-04, 02:01:04,VALID,1009.63,VALID,0,VALID,103.154,VALID,0,VALID,24.3956,VALID,123,VALID,0.133203,
2013-03-04, 02:02:04,VALID,1009.63,VALID,0,VALID,103.23,VALID,0.112112,VALID,24.3956,VALID,123,VALID,0,
2013-03-04, 02:03:04,VALID,1009.64,VALID,0,VALID,103.337,VALID,0,VALID,24.3761,VALID,123,VALID,0.0484375,
2013-03-04, 02:04:04,VALID,1009.6,VALID,0,VALID,103.367,VALID,0,VALID,24.3547,VALID,123,VALID,0.230859,
2013-03-04, 02:05:04,VALID,1009.59,VALID,0,VALID,103.382,VALID,0,VALID,24.3547,VALID,123,VALID,0.242578,
2013-03-04, 02:06:04,VALID,1009.59,VALID,0,VALID,103.451,VALID,0,VALID,24.3761,VALID,123,VALID,0.533203,
2013-03-04, 02:07:04,VALID,1009.57,VALID,0,VALID,103.527,VALID,0,VALID,24.3761,VALID,123,VALID,0.367188,
2013-03-04, 02:08:04,VALID,1009.6,VALID,0,VALID,103.55,VALID,0.112112,VALID,24.3956,VALID,123,VALID,0.215234,
2013-03-04, 02:09:04,VALID,1009.59,VALID,0,VALID,103.443,VALID,0,VALID,24.3761,VALID,123,VALID,0.162891,
2013-03-04, 02:10:04,VALID,1009.56,VALID,0,VALID,103.398,VALID,0,VALID,24.3761,VALID,123,VALID,0.169141,
2013-03-04, 02:11:04,VALID,1009.58,VALID,0,VALID,103.337,VALID,0,VALID,24.3566,VALID,123,VALID,0,
2013-03-04, 02:12:04,VALID,1009.61,VALID,0,VALID,103.298,VALID,0.112112,VALID,24.3371,VALID,123,VALID,0.219141,
2013-03-04, 02:13:04,VALID,1009.58,VALID,0,VALID,103.291,VALID,0,VALID,24.3371,VALID,123,VALID,0.2375,
2013-03-04, 02:14:04,VALID,1009.58,VALID,0,VALID,103.306,VALID,0,VALID,24.3371,VALID,123,VALID,0.157813,
2013-03-04, 02:15:04,VALID,1009.59,VALID,0,VALID,103.329,VALID,0,VALID,24.3158,VALID,123,VALID,0.129688,
2013-03-04, 02:16:04,VALID,1009.57,VALID,0,VALID,103.405,VALID,0,VALID,24.3176,VALID,123,VALID,0.151172,
2013-03-04, 02:17:04,VALID,1009.55,VALID,0,VALID,103.42,VALID,0,VALID,24.3176,VALID,123,VALID,0.0257812,
2013-03-04, 02:18:04,VALID,1009.56,VALID,0,VALID,103.512,VALID,0,VALID,24.2786,VALID,123,VALID,0.0234375,
2013-03-04, 02:19:04,VALID,1009.56,VALID,0,VALID,103.588,VALID,0,VALID,24.2573,VALID,123,VALID,0.111719,
2013-03-04, 02:20:04,VALID,1009.53,VALID,0,VALID,103.649,VALID,0,VALID,24.2573,VALID,123,VALID,0.210156,
2013-03-04, 02:21:04,VALID,1009.54,VALID,0,VALID,103.726,VALID,0,VALID,24.2396,VALID,123,VALID,0.00859375,
2013-03-04, 02:22:04,VALID,1009.51,VALID,0,VALID,103.825,VALID,0,VALID,24.1988,VALID,123,VALID,0,
2013-03-04, 02:23:04,VALID,1009.51,VALID,0,VALID,103.909,VALID,0,VALID,24.1793,VALID,123,VALID,0,
2013-03-04, 02:24:04,VALID,1009.54,VALID,0,VALID,104,VALID,0,VALID,24.1404,VALID,123,VALID,0,
2013-03-04, 02:25:04,VALID,1009.52,VALID,0,VALID,104,VALID,0,VALID,24.1599,VALID,123,VALID,0,
2013-03-04, 02:26:04,VALID,1009.5,VALID,0,VALID,104,VALID,0,VALID,24.1404,VALID,123,VALID,0,
2013-03-04, 02:27:04,VALID,1009.51,VALID,0,VALID,104,VALID,0,VALID,24.1209,VALID,123,VALID,0,
2013-03-04, 02:28:04,VALID,1009.5,VALID,0,VALID,104,VALID,0,VALID,24.1014,VALID,123,VALID,0,
2013-03-04, 02:29:04,VALID,1009.5,VALID,0,VALID,104,VALID,0.112112,VALID,24.1227,VALID,123,VALID,0.071875,
2013-03-04, 02:30:04,VALID,1009.5,VALID,0,VALID,104,VALID,0.112112,VALID,24.0819,VALID,123,VALID,0.208984,
2013-03-04, 02:31:04,VALID,1009.5,VALID,0,VALID,104,VALID,0,VALID,24.0643,VALID,123,VALID,0.384375,
2013-03-04, 02:32:04,VALID,1009.5,VALID,0,VALID,104,VALID,0,VALID,24.0448,VALID,123,VALID,0.401172,
2013-03-04, 02:33:04,VALID,1009.51,VALID,0,VALID,104,VALID,0.112112,VALID,24.0058,VALID,123,VALID,0.385938,
2013-03-04, 02:34:04,VALID,1009.49,VALID,0,VALID,104,VALID,0,VALID,24.0058,VALID,123,VALID,0.376953,
2013-03-04, 02:35:04,VALID,1009.49,VALID,0,VALID,104,VALID,0,VALID,23.965,VALID,123,VALID,0.313672,
2013-03-04, 02:36:04,VALID,1009.46,VALID,0,VALID,104,VALID,0,VALID,23.9668,VALID,123,VALID,0.247656,
2013-03-04, 02:37:04,VALID,1009.44,VALID,0,VALID,104,VALID,0,VALID,23.9473,VALID,123,VALID,0.308203,
2013-03-04, 02:38:04,VALID,1009.43,VALID,0,VALID,104,VALID,0.112112,VALID,23.9278,VALID,123,VALID,0.310937,
2013-03-04, 02:39:04,VALID,1009.4,VALID,0,VALID,104,VALID,0,VALID,23.9084,VALID,123,VALID,0.403906,
2013-03-04, 02:40:04,VALID,1009.42,VALID,0,VALID,104,VALID,0,VALID,23.9084,VALID,123,VALID,0.441797,
2013-03-04, 02:41:04,VALID,1009.4,VALID,0,VALID,104,VALID,0,VALID,23.8889,VALID,55,VALID,0.479297,
2013-03-04, 02:42:04,VALID,1009.42,VALID,0,VALID,104,VALID,0,VALID,23.8499,VALID,55,VALID,0.394922,
2013-03-04, 02:43:04,VALID,1009.42,VALID,0,VALID,104,VALID,0,VALID,23.7896,VALID,55,VALID,0.372656,
2013-03-04, 02:44:04,VALID,1009.4,VALID,0,VALID,104,VALID,0,VALID,23.7701,VALID,55,VALID,0.40625,
2013-03-04, 02:45:04,VALID,1009.4,VALID,0,VALID,104,VALID,0,VALID,23.7914,VALID,55,VALID,0.539063,
2013-03-04, 02:46:04,VALID,1009.39,VALID,0,VALID,104,VALID,0,VALID,23.7701,VALID,44,VALID,0.607422,
2013-03-04, 02:47:04,VALID,1009.38,VALID,0,VALID,104,VALID,0,VALID,23.772,VALID,44,VALID,0.480469,
2013-03-04, 02:48:04,VALID,1009.37,VALID,0,VALID,104,VALID,0.112112,VALID,23.7312,VALID,44,VALID,0.369141,
2013-03-04, 02:49:04,VALID,1009.37,VALID,0,VALID,104,VALID,0.112112,VALID,23.7117,VALID,44,VALID,0.225391,
2013-03-04, 02:50:04,VALID,1009.35,VALID,0,VALID,104,VALID,0,VALID,23.733,VALID,44,VALID,0.118359,
2013-03-04, 02:51:04,VALID,1009.37,VALID,0,VALID,104,VALID,0.112112,VALID,23.694,VALID,44,VALID,0.305078,
2013-03-04, 02:52:04,VALID,1009.37,VALID,0,VALID,104,VALID,0,VALID,23.655,VALID,44,VALID,0.296094,
2013-03-04, 02:53:04,VALID,1009.35,VALID,0,VALID,104,VALID,0.112112,VALID,23.6143,VALID,44,VALID,0.292188,
2013-03-04, 02:54:04,VALID,1009.33,VALID,0,VALID,104,VALID,0.112112,VALID,23.6161,VALID,44,VALID,0.286719,
2013-03-04, 02:55:04,VALID,1009.33,VALID,0,VALID,104,VALID,0,VALID,23.5966,VALID,44,VALID,0.241797,
2013-03-04, 02:56:04,VALID,1009.31,VALID,0,VALID,104,VALID,0.112112,VALID,23.5966,VALID,44,VALID,0.178906,
2013-03-04, 02:57:04,VALID,1009.33,VALID,0,VALID,104,VALID,0,VALID,23.5558,VALID,44,VALID,0,
2013-03-04, 02:58:04,VALID,1009.31,VALID,0,VALID,104,VALID,0,VALID,23.5771,VALID,44,VALID,0,
2013-03-04, 02:59:04,VALID,1009.35,VALID,0,VALID,104,VALID,0,VALID,23.5771,VALID,44,VALID,0.198047,
2013-03-04, 03:00:04,VALID,1009.34,VALID,0,VALID,104,VALID,0,VALID,23.5966,VALID,45,VALID,0.239453,
2013-03-04, 03:01:04,VALID,1009.34,VALID,0,VALID,104,VALID,0,VALID,23.6161,VALID,44,VALID,0.237109,
2013-03-04, 03:02:04,VALID,1009.35,VALID,0,VALID,104,VALID,0,VALID,23.6161,VALID,44,VALID,0.146094,
2013-03-04, 03:03:04,VALID,1009.35,VALID,0,VALID,104,VALID,0,VALID,23.6161,VALID,44,VALID,0,
2013-03-04, 03:04:04,VALID,1009.32,VALID,0,VALID,104,VALID,0,VALID,23.6161,VALID,44,VALID,0,
2013-03-04, 03:05:04,VALID,1009.34,VALID,0,VALID,104,VALID,0,VALID,23.5966,VALID,44,VALID,0,
2013-03-04, 03:06:04,VALID,1009.33,VALID,0,VALID,104,VALID,0,VALID,23.5966,VALID,44,VALID,0,
2013-03-04, 03:07:04,VALID,1009.32,VALID,0,VALID,104,VALID,0,VALID,23.5984,VALID,44,VALID,0.232812,
2013-03-04, 03:08:04,VALID,1009.34,VALID,0,VALID,104,VALID,0,VALID,23.5771,VALID,44,VALID,0.23125,
2013-03-04, 03:09:04,VALID,1009.34,VALID,0,VALID,104,VALID,0,VALID,23.5771,VALID,44,VALID,0.351172,
2013-03-04, 03:10:04,VALID,1009.32,VALID,0,VALID,104,VALID,0,VALID,23.5966,VALID,44,VALID,0.380859,
2013-03-04, 03:11:04,VALID,1009.3,VALID,0,VALID,104,VALID,0,VALID,23.5966,VALID,44,VALID,0.454297,
2013-03-04, 03:12:04,VALID,1009.32,VALID,0,VALID,104,VALID,0,VALID,23.5966,VALID,44,VALID,0.408984,
2013-03-04, 03:13:04,VALID,1009.31,VALID,0,VALID,104,VALID,0,VALID,23.5576,VALID,44,VALID,0.358203,
2013-03-04, 03:14:04,VALID,1009.29,VALID,0,VALID,104,VALID,0,VALID,23.5381,VALID,44,VALID,0.234375,
2013-03-04, 03:15:04,VALID,1009.26,VALID,0,VALID,104,VALID,0,VALID,23.5186,VALID,44,VALID,0.0773437,
2013-03-04, 03:16:04,VALID,1009.25,VALID,0,VALID,104,VALID,0,VALID,23.4797,VALID,44,VALID,0.167578,
2013-03-04, 03:17:04,VALID,1009.26,VALID,0,VALID,104,VALID,0,VALID,23.4602,VALID,45,VALID,0.33125,
2013-03-04, 03:18:04,VALID,1009.25,VALID,0,VALID,104,VALID,0,VALID,23.4602,VALID,44,VALID,0.357031,
2013-03-04, 03:19:04,VALID,1009.24,VALID,0,VALID,104,VALID,0,VALID,23.4407,VALID,44,VALID,0.450781,
2013-03-04, 03:20:04,VALID,1009.26,VALID,0,VALID,104,VALID,0,VALID,23.4407,VALID,44,VALID,0.340234,
2013-03-04, 03:21:04,VALID,1009.27,VALID,0,VALID,104,VALID,0,VALID,23.4425,VALID,44,VALID,0.494141,
2013-03-04, 03:22:04,VALID,1009.26,VALID,0,VALID,104,VALID,0,VALID,23.4212,VALID,43,VALID,0.533203,
2013-03-04, 03:23:04,VALID,1009.27,VALID,0,VALID,104,VALID,0,VALID,23.423,VALID,44,VALID,0.480078,
2013-03-04, 03:24:04,VALID,1009.28,VALID,0,VALID,104,VALID,0,VALID,23.4212,VALID,44,VALID,0.396094,
2013-03-04, 03:25:04,VALID,1009.28,VALID,0,VALID,104,VALID,0,VALID,23.4212,VALID,44,VALID,0.273438,
2013-03-04, 03:26:04,VALID,1009.31,VALID,0,VALID,104,VALID,0,VALID,23.3823,VALID,44,VALID,0.257422,
2013-03-04, 03:27:04,VALID,1009.3,VALID,0,VALID,104,VALID,0,VALID,23.3823,VALID,44,VALID,0.255469,
2013-03-04, 03:28:04,VALID,1009.28,VALID,0,VALID,104,VALID,0,VALID,23.3433,VALID,44,VALID,0.211719,
2013-03-04, 03:29:04,VALID,1009.33,VALID,0,VALID,104,VALID,0,VALID,23.3433,VALID,44,VALID,0.0871094,
2013-03-04, 03:30:04,VALID,1009.33,VALID,0,VALID,104,VALID,0,VALID,23.3451,VALID,44,VALID,0.0203125,
2013-03-04, 03:31:04,VALID,1009.33,VALID,0,VALID,104,VALID,0,VALID,23.3238,VALID,44,VALID,0,
2013-03-04, 03:32:04,VALID,1009.36,VALID,0,VALID,104,VALID,0,VALID,23.3026,VALID,44,VALID,0,
2013-03-04, 03:33:04,VALID,1009.37,VALID,0,VALID,104,VALID,0,VALID,23.3238,VALID,44,VALID,0,
2013-03-04, 03:34:04,VALID,1009.36,VALID,0,VALID,104,VALID,0,VALID,23.3433,VALID,44,VALID,0.153125,
2013-03-04, 03:35:04,VALID,1009.35,VALID,0,VALID,104,VALID,0,VALID,23.3628,VALID,44,VALID,0.182031,
2013-03-04, 03:36:04,VALID,1009.37,VALID,0,VALID,104,VALID,0,VALID,23.4017,VALID,44,VALID,0.278906,
2013-03-04, 03:37:04,VALID,1009.34,VALID,0,VALID,104,VALID,0,VALID,23.4212,VALID,44,VALID,0.294922,
2013-03-04, 03:38:04,VALID,1009.34,VALID,0,VALID,104,VALID,0,VALID,23.4407,VALID,44,VALID,0.326953,
2013-03-04, 03:39:04,VALID,1009.38,VALID,0,VALID,104,VALID,0,VALID,23.4407,VALID,44,VALID,0.397266,
2013-03-04, 03:40:04,VALID,1009.37,VALID,0,VALID,104,VALID,0,VALID,23.4407,VALID,69,VALID,0.623438,
2013-03-04, 03:41:04,VALID,1009.37,VALID,0,VALID,104,VALID,0,VALID,23.4602,VALID,129,VALID,0.546875,
2013-03-04, 03:42:04,VALID,1009.4,VALID,0,VALID,104,VALID,0,VALID,23.5009,VALID,129,VALID,0.478516,
2013-03-04, 03:43:04,VALID,1009.42,VALID,0,VALID,104,VALID,0,VALID,23.4797,VALID,129,VALID,0.503516,
2013-03-04, 03:44:04,VALID,1009.41,VALID,0,VALID,104,VALID,0,VALID,23.4992,VALID,129,VALID,0.417578,
2013-03-04, 03:45:04,VALID,1009.44,VALID,0,VALID,104,VALID,0,VALID,23.4992,VALID,129,VALID,0.186328,
2013-03-04, 03:46:04,VALID,1009.45,VALID,0,VALID,104,VALID,0,VALID,23.5186,VALID,129,VALID,0,
2013-03-04, 03:47:04,VALID,1009.47,VALID,0,VALID,104,VALID,0,VALID,23.5186,VALID,129,VALID,0.142578,
2013-03-04, 03:48:04,VALID,1009.48,VALID,0,VALID,104,VALID,0,VALID,23.5381,VALID,129,VALID,0.189844,
2013-03-04, 03:49:04,VALID,1009.49,VALID,0,VALID,104,VALID,0.112112,VALID,23.5576,VALID,129,VALID,0.215234,
2013-03-04, 03:50:04,VALID,1009.51,VALID,0,VALID,104,VALID,0.112112,VALID,23.5363,VALID,129,VALID,0.217187,
2013-03-04, 03:51:04,VALID,1009.53,VALID,0,VALID,104,VALID,0,VALID,23.5576,VALID,129,VALID,0.166406,
2013-03-04, 03:52:04,VALID,1009.48,VALID,0,VALID,104,VALID,0,VALID,23.5771,VALID,129,VALID,0.162891,
2013-03-04, 03:53:04,VALID,1009.47,VALID,0,VALID,104,VALID,0,VALID,23.5771,VALID,129,VALID,0.119141,